Time,TemperatureF,DewpointF,PressureIn,WindDirection,WindDirectionDegrees,WindSpeedMPH,WindSpeedGustMPH,Humidity,HourlyPrecipIn,Conditions,Clouds,dailyrainin,SoftwareType,DateUTC
2013-04-03 00:00:00,58.3,30.1,29.92,North,-999,-999.0,0.0,34,0.00,,---,0.00,VWS V14.01,2013-04-03 04:00:00,
2013-04-03 00:01:00,58.3,30.1,29.92,North,-999,-999.0,0.0,34,0.00,,---,0.00,VWS V14.01,2013-04-03 04:01:00,
2013-04-03 00:03:00,58.3,30.1,29.92,North,-999,-999.0,0.0,34,0.00,,---,0.00,VWS V14.01,2013-04-03 04:03:00,
2013-04-03 00:09:00,58.3,30.1,29.92,North,-999,-999.0,0.0,34,0.00,,---,0.00,VWS V14.01,2013-04-03 04:09:00,
2013-04-03 01:00:00,56.9,28.8,29.94,North,-999,-999.0,0.0,34,0.00,,---,0.00,VWS V14.01,2013-04-03 05:00:00,
2013-04-03 01:06:00,56.9,28.8,29.94,North,-999,-999.0,0.0,34,0.00,,---,0.00,VWS V14.01,2013-04-03 05:06:00,
2013-04-03 02:00:00,55.4,30.2,29.95,North,-999,-999.0,0.0,38,0.00,,---,0.00,VWS V14.01,2013-04-03 06:00:00,
2013-04-03 02:06:00,55.4,30.2,29.95,North,-999,-999.0,0.0,38,0.00,,---,0.00,VWS V14.01,2013-04-03 06:06:00,
2013-04-03 10:00:00,52.9,22.3,30.05,North,-999,-999.0,0.0,30,0.00,,---,0.00,VWS V14.01,2013-04-03 14:00:00,
2013-04-03 10:06:00,52.9,22.3,30.05,North,-999,-999.0,0.0,30,0.00,,---,0.00,VWS V14.01,2013-04-03 14:06:00,
2013-04-03 11:00:00,59.2,25.3,30.06,North,-999,-999.0,0.0,27,0.00,,---,0.00,VWS V14.01,2013-04-03 15:00:00,
2013-04-03 11:06:00,59.2,25.3,30.06,North,-999,-999.0,0.0,27,0.00,,---,0.00,VWS V14.01,2013-04-03 15:06:00,
2013-04-03 12:00:00,65.2,27.5,30.06,North,-999,-999.0,0.0,24,0.00,,---,0.00,VWS V14.01,2013-04-03 16:00:00,
2013-04-03 12:05:00,65.7,28.0,30.06,North,-999,-999.0,0.0,24,0.00,,---,0.00,VWS V14.01,2013-04-03 16:05:00,
2013-04-03 12:10:00,66.8,27.8,30.05,North,-999,-999.0,0.0,23,0.00,,---,0.00,VWS V14.01,2013-04-03 16:10:00,
2013-04-03 12:16:00,67.1,28.1,30.05,North,-999,-999.0,0.0,23,0.00,,---,0.00,VWS V14.01,2013-04-03 16:16:00,
2013-04-03 12:21:00,65.5,25.7,30.05,North,-999,-999.0,0.0,22,0.00,,---,0.00,VWS V14.01,2013-04-03 16:21:00,
2013-04-03 12:27:00,64.4,25.8,30.05,North,-999,-999.0,0.0,23,0.00,,---,0.00,VWS V14.01,2013-04-03 16:27:00,
2013-04-03 12:32:00,64.8,26.2,30.05,North,-999,-999.0,0.0,23,0.00,,---,0.00,VWS V14.01,2013-04-03 16:32:00,
2013-04-03 12:37:00,63.9,26.4,30.05,North,-999,-999.0,0.0,24,0.00,,---,0.00,VWS V14.01,2013-04-03 16:37:00,
2013-04-03 12:43:00,64.4,25.8,30.04,North,-999,-999.0,0.0,23,0.00,,---,0.00,VWS V14.01,2013-04-03 16:43:00,
2013-04-03 12:48:00,65.3,26.6,30.05,North,-999,-999.0,0.0,23,0.00,,---,0.00,VWS V14.01,2013-04-03 16:48:00,
2013-04-03 12:53:00,65.2,26.5,30.04,North,-999,-999.0,0.0,23,0.00,,---,0.00,VWS V14.01,2013-04-03 16:53:00,
2013-04-03 12:58:00,64.3,26.8,30.04,North,-999,-999.0,0.0,24,0.00,,---,0.00,VWS V14.01,2013-04-03 16:58:00,
2013-04-03 13:04:00,65.7,29.0,30.04,North,-999,-999.0,0.0,25,0.00,,---,0.00,VWS V14.01,2013-04-03 17:04:00,
2013-04-03 13:10:00,66.2,27.3,30.04,North,-999,-999.0,0.0,23,0.00,,---,0.00,VWS V14.01,2013-04-03 17:10:00,
2013-04-03 13:16:00,66.4,28.5,30.04,North,-999,-999.0,0.0,24,0.00,,---,0.00,VWS V14.01,2013-04-03 17:16:00,
2013-04-03 13:21:00,67.5,28.4,30.04,North,-999,-999.0,0.0,23,0.00,,---,0.00,VWS V14.01,2013-04-03 17:21:00,
2013-04-03 13:26:00,67.9,28.8,30.04,North,-999,-999.0,0.0,23,0.00,,---,0.00,VWS V14.01,2013-04-03 17:26:00,
2013-04-03 13:31:00,67.0,28.0,30.03,North,-999,-999.0,0.0,23,0.00,,---,0.00,VWS V14.01,2013-04-03 17:31:00,
2013-04-03 13:37:00,66.6,28.7,30.03,North,-999,-999.0,0.0,24,0.00,,---,0.00,VWS V14.01,2013-04-03 17:37:00,
2013-04-03 13:43:00,65.7,25.8,30.03,North,-999,-999.0,0.0,22,0.00,,---,0.00,VWS V14.01,2013-04-03 17:43:00,
2013-04-03 13:48:00,65.2,28.5,30.02,North,-999,-999.0,0.0,25,0.00,,---,0.00,VWS V14.01,2013-04-03 17:48:00,
2013-04-03 13:53:00,66.1,27.2,30.02,North,-999,-999.0,0.0,23,0.00,,---,0.00,VWS V14.01,2013-04-03 17:53:00,
2013-04-03 13:58:00,65.5,26.8,30.02,North,-999,-999.0,0.0,23,0.00,,---,0.00,VWS V14.01,2013-04-03 17:58:00,
2013-04-03 14:04:00,64.4,27.8,30.02,North,-999,-999.0,0.0,25,0.00,,---,0.00,VWS V14.01,2013-04-03 18:04:00,
2013-04-03 14:09:00,65.9,29.1,30.02,North,-999,-999.0,0.0,25,0.00,,---,0.00,VWS V14.01,2013-04-03 18:09:00,
2013-04-03 14:14:00,67.3,29.3,30.01,North,-999,-999.0,0.0,24,0.00,,---,0.00,VWS V14.01,2013-04-03 18:14:00,
2013-04-03 14:19:00,67.7,27.5,30.01,North,-999,-999.0,0.0,22,0.00,,---,0.00,VWS V14.01,2013-04-03 18:19:00,
2013-04-03 14:24:00,66.6,27.7,30.00,North,-999,-999.0,0.0,23,0.00,,---,0.00,VWS V14.01,2013-04-03 18:24:00,
2013-04-03 14:29:00,67.0,28.0,30.01,North,-999,-999.0,0.0,23,0.00,,---,0.00,VWS V14.01,2013-04-03 18:29:00,
2013-04-03 14:35:00,65.7,26.9,30.01,North,-999,-999.0,0.0,23,0.00,,---,0.00,VWS V14.01,2013-04-03 18:35:00,
2013-04-03 14:40:00,65.3,27.6,30.00,North,-999,-999.0,0.0,24,0.00,,---,0.00,VWS V14.01,2013-04-03 18:40:00,
2013-04-03 14:45:00,66.1,29.3,30.00,North,-999,-999.0,0.0,25,0.00,,---,0.00,VWS V14.01,2013-04-03 18:45:00,
2013-04-03 14:51:00,66.1,28.3,30.00,North,-999,-999.0,0.0,24,0.00,,---,0.00,VWS V14.01,2013-04-03 18:51:00,
2013-04-03 14:56:00,65.9,29.1,30.00,North,-999,-999.0,0.0,25,0.00,,---,0.00,VWS V14.01,2013-04-03 18:56:00,
2013-04-03 15:02:00,66.4,29.5,30.00,North,-999,-999.0,0.0,25,0.00,,---,0.00,VWS V14.01,2013-04-03 19:02:00,
2013-04-03 15:07:00,67.3,30.3,30.00,North,-999,-999.0,0.0,25,0.00,,---,0.00,VWS V14.01,2013-04-03 19:07:00,
2013-04-03 15:12:00,68.2,30.1,30.00,North,-999,-999.0,0.0,24,0.00,,---,0.00,VWS V14.01,2013-04-03 19:12:00,
2013-04-03 15:17:00,67.5,28.4,30.00,North,-999,-999.0,0.0,23,0.00,,---,0.00,VWS V14.01,2013-04-03 19:17:00,
2013-04-03 15:22:00,66.2,27.3,30.00,North,-999,-999.0,0.0,23,0.00,,---,0.00,VWS V14.01,2013-04-03 19:22:00,
2013-04-03 15:27:00,66.6,28.7,30.00,North,-999,-999.0,0.0,24,0.00,,---,0.00,VWS V14.01,2013-04-03 19:27:00,
2013-04-03 15:33:00,67.0,30.0,30.00,North,-999,-999.0,0.0,25,0.00,,---,0.00,VWS V14.01,2013-04-03 19:33:00,
2013-04-03 15:38:00,66.6,29.7,30.00,North,-999,-999.0,0.0,25,0.00,,---,0.00,VWS V14.01,2013-04-03 19:38:00,
2013-04-03 15:43:00,66.6,29.7,30.00,North,-999,-999.0,0.0,25,0.00,,---,0.00,VWS V14.01,2013-04-03 19:43:00,
2013-04-03 15:48:00,66.8,29.9,30.00,North,-999,-999.0,0.0,25,0.00,,---,0.00,VWS V14.01,2013-04-03 19:48:00,
2013-04-03 15:53:00,66.8,29.9,30.00,North,-999,-999.0,0.0,25,0.00,,---,0.00,VWS V14.01,2013-04-03 19:53:00,
2013-04-03 15:58:00,67.1,30.1,30.00,North,-999,-999.0,0.0,25,0.00,,---,0.00,VWS V14.01,2013-04-03 19:58:00,
2013-04-03 16:04:00,65.9,28.1,30.00,North,-999,-999.0,0.0,24,0.00,,---,0.00,VWS V14.01,2013-04-03 20:04:00,
2013-04-03 16:09:00,65.3,28.6,30.00,North,-999,-999.0,0.0,25,0.00,,---,0.00,VWS V14.01,2013-04-03 20:09:00,
2013-04-03 16:14:00,65.3,29.6,30.00,North,-999,-999.0,0.0,26,0.00,,---,0.00,VWS V14.01,2013-04-03 20:14:00,
2013-04-03 16:19:00,65.5,29.7,30.00,North,-999,-999.0,0.0,26,0.00,,---,0.00,VWS V14.01,2013-04-03 20:19:00,
2013-04-03 16:24:00,65.7,29.9,30.00,North,-999,-999.0,0.0,26,0.00,,---,0.00,VWS V14.01,2013-04-03 20:24:00,
2013-04-03 16:29:00,65.5,29.7,30.00,North,-999,-999.0,0.0,26,0.00,,---,0.00,VWS V14.01,2013-04-03 20:29:00,
2013-04-03 16:34:00,65.2,29.5,30.00,North,-999,-999.0,0.0,26,0.00,,---,0.00,VWS V14.01,2013-04-03 20:34:00,
2013-04-03 16:39:00,65.0,29.3,30.00,North,-999,-999.0,0.0,26,0.00,,---,0.00,VWS V14.01,2013-04-03 20:39:00,
2013-04-03 16:44:00,65.0,30.2,30.00,North,-999,-999.0,0.0,27,0.00,,---,0.00,VWS V14.01,2013-04-03 20:44:00,
2013-04-03 16:49:00,64.4,27.8,30.00,North,-999,-999.0,0.0,25,0.00,,---,0.00,VWS V14.01,2013-04-03 20:49:00,
2013-04-03 16:54:00,64.4,28.8,30.00,North,-999,-999.0,0.0,26,0.00,,---,0.00,VWS V14.01,2013-04-03 20:54:00,
2013-04-03 17:01:00,64.1,28.5,30.00,North,-999,-999.0,0.0,26,0.00,,---,0.00,VWS V14.01,2013-04-03 21:01:00,
2013-04-03 17:07:00,64.4,30.6,30.00,North,-999,-999.0,0.0,28,0.00,,---,0.00,VWS V14.01,2013-04-03 21:07:00,
2013-04-03 17:12:00,64.4,28.8,30.00,North,-999,-999.0,0.0,26,0.00,,---,0.00,VWS V14.01,2013-04-03 21:12:00,
2013-04-03 17:17:00,64.1,28.5,30.00,North,-999,-999.0,0.0,26,0.00,,---,0.00,VWS V14.01,2013-04-03 21:17:00,
2013-04-03 17:22:00,63.4,27.9,29.99,North,-999,-999.0,0.0,26,0.00,,---,0.00,VWS V14.01,2013-04-03 21:22:00,
2013-04-03 17:27:00,63.0,26.6,29.99,North,-999,-999.0,0.0,25,0.00,,---,0.00,VWS V14.01,2013-04-03 21:27:00,
2013-04-03 17:32:00,62.6,26.3,29.99,North,-999,-999.0,0.0,25,0.00,,---,0.00,VWS V14.01,2013-04-03 21:32:00,
2013-04-03 17:38:00,62.3,27.9,29.98,North,-999,-999.0,0.0,27,0.00,,---,0.00,VWS V14.01,2013-04-03 21:38:00,
2013-04-03 17:43:00,62.6,28.2,29.98,North,-999,-999.0,0.0,27,0.00,,---,0.00,VWS V14.01,2013-04-03 21:43:00,
2013-04-03 17:48:00,62.5,28.1,29.98,North,-999,-999.0,0.0,27,0.00,,---,0.00,VWS V14.01,2013-04-03 21:48:00,
2013-04-03 17:53:00,62.5,28.1,29.98,North,-999,-999.0,0.0,27,0.00,,---,0.00,VWS V14.01,2013-04-03 21:53:00,
2013-04-03 17:58:00,62.6,28.2,29.98,North,-999,-999.0,0.0,27,0.00,,---,0.00,VWS V14.01,2013-04-03 21:58:00,
2013-04-03 18:04:00,62.6,29.1,29.98,North,-999,-999.0,0.0,28,0.00,,---,0.00,VWS V14.01,2013-04-03 22:04:00,
2013-04-03 18:10:00,62.6,29.1,29.98,North,-999,-999.0,0.0,28,0.00,,---,0.00,VWS V14.01,2013-04-03 22:10:00,
2013-04-03 18:15:00,62.5,29.0,29.98,North,-999,-999.0,0.0,28,0.00,,---,0.00,VWS V14.01,2013-04-03 22:15:00,
2013-04-03 18:20:00,62.3,28.8,29.98,North,-999,-999.0,0.0,28,0.00,,---,0.00,VWS V14.01,2013-04-03 22:20:00,
2013-04-03 18:25:00,62.1,28.6,29.98,North,-999,-999.0,0.0,28,0.00,,---,0.00,VWS V14.01,2013-04-03 22:25:00,
2013-04-03 18:30:00,61.9,29.3,29.98,North,-999,-999.0,0.0,29,0.00,,---,0.00,VWS V14.01,2013-04-03 22:30:00,
2013-04-03 18:35:00,61.6,29.1,29.98,North,-999,-999.0,0.0,29,0.00,,---,0.00,VWS V14.01,2013-04-03 22:35:00,
2013-04-03 18:40:00,61.2,28.7,29.98,North,-999,-999.0,0.0,29,0.00,,---,0.00,VWS V14.01,2013-04-03 22:40:00,
2013-04-03 18:45:00,61.0,28.5,29.98,North,-999,-999.0,0.0,29,0.00,,---,0.00,VWS V14.01,2013-04-03 22:45:00,
2013-04-03 18:50:00,60.8,29.2,29.98,North,-999,-999.0,0.0,30,0.00,,---,0.00,VWS V14.01,2013-04-03 22:50:00,
2013-04-03 18:55:00,60.5,28.1,29.98,North,-999,-999.0,0.0,29,0.00,,---,0.00,VWS V14.01,2013-04-03 22:55:00,
2013-04-03 19:01:00,60.1,28.6,29.98,North,-999,-999.0,0.0,30,0.00,,---,0.00,VWS V14.01,2013-04-03 23:01:00,
2013-04-03 19:06:00,60.1,28.6,29.98,North,-999,-999.0,0.0,30,0.00,,---,0.00,VWS V14.01,2013-04-03 23:06:00,
2013-04-03 19:11:00,59.8,29.1,29.98,North,-999,-999.0,0.0,31,0.00,,---,0.00,VWS V14.01,2013-04-03 23:11:00,
2013-04-03 19:16:00,59.8,29.1,29.98,North,-999,-999.0,0.0,31,0.00,,---,0.00,VWS V14.01,2013-04-03 23:16:00,
2013-04-03 19:21:00,59.4,29.6,29.98,North,-999,-999.0,0.0,32,0.00,,---,0.00,VWS V14.01,2013-04-03 23:21:00,
2013-04-03 19:27:00,59.2,29.4,29.98,North,-999,-999.0,0.0,32,0.00,,---,0.00,VWS V14.01,2013-04-03 23:27:00,
2013-04-03 19:32:00,59.0,30.0,29.99,North,-999,-999.0,0.0,33,0.00,,---,0.00,VWS V14.01,2013-04-03 23:32:00,
2013-04-03 19:37:00,58.9,29.9,29.99,North,-999,-999.0,0.0,33,0.00,,---,0.00,VWS V14.01,2013-04-03 23:37:00,
2013-04-03 19:42:00,58.7,29.7,30.00,North,-999,-999.0,0.0,33,0.00,,---,0.00,VWS V14.01,2013-04-03 23:42:00,
2013-04-03 19:47:00,58.3,30.1,30.00,North,-999,-999.0,0.0,34,0.00,,---,0.00,VWS V14.01,2013-04-03 23:47:00,
2013-04-03 19:52:00,58.0,31.2,29.99,North,-999,-999.0,0.0,36,0.00,,---,0.00,VWS V14.01,2013-04-03 23:52:00,
2013-04-03 19:58:00,57.8,31.7,29.99,North,-999,-999.0,0.0,37,0.00,,---,0.00,VWS V14.01,2013-04-03 23:58:00,
2013-04-03 20:03:00,57.6,32.2,29.99,North,-999,-999.0,0.0,38,0.00,,---,0.00,VWS V14.01,2013-04-04 00:03:00,
2013-04-03 20:08:00,57.2,32.5,29.99,North,-999,-999.0,0.0,39,0.00,,---,0.00,VWS V14.01,2013-04-04 00:08:00,
2013-04-03 20:13:00,56.9,32.2,29.99,North,-999,-999.0,0.0,39,0.00,,---,0.00,VWS V14.01,2013-04-04 00:13:00,
2013-04-03 20:18:00,56.7,32.7,30.00,North,-999,-999.0,0.0,40,0.00,,---,0.00,VWS V14.01,2013-04-04 00:18:00,
2013-04-03 20:23:00,56.5,33.1,30.00,North,-999,-999.0,0.0,41,0.00,,---,0.00,VWS V14.01,2013-04-04 00:23:00,
2013-04-03 20:28:00,56.2,33.4,30.00,North,-999,-999.0,0.0,42,0.00,,---,0.00,VWS V14.01,2013-04-04 00:28:00,
2013-04-03 20:33:00,56.2,34.6,30.00,North,-999,-999.0,0.0,44,0.00,,---,0.00,VWS V14.01,2013-04-04 00:33:00,
2013-04-03 20:38:00,55.8,33.7,30.01,North,-999,-999.0,0.0,43,0.00,,---,0.00,VWS V14.01,2013-04-04 00:38:00,
2013-04-03 20:43:00,55.8,34.2,30.01,North,-999,-999.0,0.0,44,0.00,,---,0.00,VWS V14.01,2013-04-04 00:43:00,
2013-04-03 20:48:00,55.6,34.0,30.01,North,-999,-999.0,0.0,44,0.00,,---,0.00,VWS V14.01,2013-04-04 00:48:00,
2013-04-03 20:53:00,55.6,34.0,30.01,North,-999,-999.0,0.0,44,0.00,,---,0.00,VWS V14.01,2013-04-04 00:53:00,
2013-04-03 20:58:00,55.4,33.9,30.01,North,-999,-999.0,0.0,44,0.00,,---,0.00,VWS V14.01,2013-04-04 00:58:00,
2013-04-03 21:04:00,55.4,33.9,30.02,North,-999,-999.0,0.0,44,0.00,,---,0.00,VWS V14.01,2013-04-04 01:04:00,
2013-04-03 21:09:00,55.1,33.6,30.02,North,-999,-999.0,0.0,44,0.00,,---,0.00,VWS V14.01,2013-04-04 01:09:00,
2013-04-03 21:14:00,55.1,33.6,30.03,North,-999,-999.0,0.0,44,0.00,,---,0.00,VWS V14.01,2013-04-04 01:14:00,
2013-04-03 21:20:00,54.9,34.0,30.03,North,-999,-999.0,0.0,45,0.00,,---,0.00,VWS V14.01,2013-04-04 01:20:00,
2013-04-03 21:25:00,54.7,33.8,30.03,North,-999,-999.0,0.0,45,0.00,,---,0.00,VWS V14.01,2013-04-04 01:25:00,
2013-04-03 21:30:00,54.5,33.6,30.03,North,-999,-999.0,0.0,45,0.00,,---,0.00,VWS V14.01,2013-04-04 01:30:00,
2013-04-03 21:35:00,54.4,34.1,30.03,North,-999,-999.0,0.0,46,0.00,,---,0.00,VWS V14.01,2013-04-04 01:35:00,
2013-04-03 21:40:00,54.2,34.4,30.03,North,-999,-999.0,0.0,47,0.00,,---,0.00,VWS V14.01,2013-04-04 01:40:00,
2013-04-03 21:45:00,54.0,34.2,30.03,North,-999,-999.0,0.0,47,0.00,,---,0.00,VWS V14.01,2013-04-04 01:45:00,
2013-04-03 21:50:00,53.8,34.1,30.03,North,-999,-999.0,0.0,47,0.00,,---,0.00,VWS V14.01,2013-04-04 01:50:00,
2013-04-03 21:55:00,53.6,34.4,30.04,North,-999,-999.0,0.0,48,0.00,,---,0.00,VWS V14.01,2013-04-04 01:55:00,
2013-04-03 22:01:00,53.5,34.3,30.04,North,-999,-999.0,0.0,48,0.00,,---,0.00,VWS V14.01,2013-04-04 02:01:00,
2013-04-03 22:06:00,53.5,34.3,30.04,North,-999,-999.0,0.0,48,0.00,,---,0.00,VWS V14.01,2013-04-04 02:06:00,
2013-04-03 22:11:00,53.5,34.3,30.04,North,-999,-999.0,0.0,48,0.00,,---,0.00,VWS V14.01,2013-04-04 02:11:00,
2013-04-03 22:16:00,53.3,34.7,30.04,North,-999,-999.0,0.0,49,0.00,,---,0.00,VWS V14.01,2013-04-04 02:16:00,
2013-04-03 22:21:00,53.3,34.1,30.05,North,-999,-999.0,0.0,48,0.00,,---,0.00,VWS V14.01,2013-04-04 02:21:00,
2013-04-03 22:26:00,53.1,34.5,30.05,North,-999,-999.0,0.0,49,0.00,,---,0.00,VWS V14.01,2013-04-04 02:26:00,
2013-04-03 22:31:00,52.9,33.8,30.04,North,-999,-999.0,0.0,48,0.00,,---,0.00,VWS V14.01,2013-04-04 02:31:00,
2013-04-03 22:37:00,52.9,34.3,30.05,North,-999,-999.0,0.0,49,0.00,,---,0.00,VWS V14.01,2013-04-04 02:37:00,
2013-04-03 22:42:00,52.9,34.3,30.05,North,-999,-999.0,0.0,49,0.00,,---,0.00,VWS V14.01,2013-04-04 02:42:00,
2013-04-03 22:47:00,52.9,34.8,30.05,North,-999,-999.0,0.0,50,0.00,,---,0.00,VWS V14.01,2013-04-04 02:47:00,
2013-04-03 22:52:00,52.7,34.6,30.05,North,-999,-999.0,0.0,50,0.00,,---,0.00,VWS V14.01,2013-04-04 02:52:00,
2013-04-03 22:57:00,52.6,34.5,30.05,North,-999,-999.0,0.0,50,0.00,,---,0.00,VWS V14.01,2013-04-04 02:57:00,
2013-04-03 23:03:00,52.6,35.0,30.05,North,-999,-999.0,0.0,51,0.00,,---,0.00,VWS V14.01,2013-04-04 03:03:00,
2013-04-03 23:08:00,52.4,34.8,30.06,North,-999,-999.0,0.0,51,0.00,,---,0.00,VWS V14.01,2013-04-04 03:08:00,
2013-04-03 23:13:00,52.4,35.3,30.06,North,-999,-999.0,0.0,52,0.00,,---,0.00,VWS V14.01,2013-04-04 03:13:00,
2013-04-03 23:18:00,52.4,35.8,30.06,North,-999,-999.0,0.0,53,0.00,,---,0.00,VWS V14.01,2013-04-04 03:18:00,
2013-04-03 23:23:00,52.2,36.1,30.05,North,-999,-999.0,0.0,54,0.00,,---,0.00,VWS V14.01,2013-04-04 03:23:00,
2013-04-03 23:28:00,52.0,36.3,30.05,North,-999,-999.0,0.0,55,0.00,,---,0.00,VWS V14.01,2013-04-04 03:28:00,
2013-04-03 23:33:00,52.0,36.3,30.05,North,-999,-999.0,0.0,55,0.00,,---,0.00,VWS V14.01,2013-04-04 03:33:00,
2013-04-03 23:38:00,52.0,36.3,30.05,North,-999,-999.0,0.0,55,0.00,,---,0.00,VWS V14.01,2013-04-04 03:38:00,
2013-04-03 23:43:00,51.8,36.2,30.05,North,-999,-999.0,0.0,55,0.00,,---,0.00,VWS V14.01,2013-04-04 03:43:00,
2013-04-03 23:48:00,51.8,36.2,30.05,North,-999,-999.0,0.0,55,0.00,,---,0.00,VWS V14.01,2013-04-04 03:48:00,
2013-04-03 23:53:00,51.7,36.1,30.05,North,-999,-999.0,0.0,55,0.00,,---,0.00,VWS V14.01,2013-04-04 03:53:00,
2013-04-03 23:58:00,51.7,36.5,30.05,North,-999,-999.0,0.0,56,0.00,,---,0.00,VWS V14.01,2013-04-04 03:58:00,